sat.trackr.live / text

‹ back to catalog

STARLINK-36317

NORAD 67736 · 2026-026R

PAYLOAD ACTIVE UNKNOWN

§ Identity

Operator
Country
US
Launch date
2026-02-11
Launch site
AFWTR
Launch vehicle
Mass (kg)
RCS (m²)

Purposes: comms

External: N2YO · Heavens-Above · Gunter

§ Orbital elements

Epoch: 2026-05-25T03:21:58.542624Z

Period
93.91 min
Inclination
97.2847°
Eccentricity
0.0000921
Mean motion
15.33435579 rev/d
Perigee alt
464.9 km
Apogee alt
466.2 km
Semi-major
6,843.7 km
B*
5.1737e-4
RAAN
198.6869°
Arg perigee
85.4681°
Mean anomaly
274.6667°
Rev number
1,584

§ Raw data

STARLINK-363171 67736U 26026R   26145.14026091  .00016660  00000+0  51737-3 0  99902 67736  97.2847 198.6869 0000921  85.4681 274.6667 15.33435579 15840

JSON: /api/v1/satellites/67736 · /tle

For live sub-satellite position, see the globe view (requires WebGL).

§ Visibility from observer

Set your observer location to see the next 7 days of passes ≥ 10°. The values pass through the URL so the page stays shareable.

No JS? Fill the form by hand. The geolocation button needs JavaScript.